FENGYUN 1C DEB, 37444

Orbit data source: Space-Track

FENGYUN 1C DEB, 37444 is space debris in SSO originally from a launch on Mon, 10 May 1999 UTC launched from the Taiyaun Space Center, China (TSC). Fengyun 1C debris stems from the Chinese weather satellite Fengyun-1C, which was intentionally destroyed by a Chinese anti-satellite missile in 2007. This event dramatically increased the amount of space debris, with thousands of trackable fragments posing hazards to satellites and human spaceflight. The Fengyun 1C debris cloud has become a focal point in discussions about space sustainability and the need for international regulations to prevent the creation of new debris.

Loading next visibility...
Identifier
37444, 1999-025EHN
Orbit
SSO
Country
Flag of CNCN / PRC
Related business
Manufacturer
Unknown
Mission
Spacecraft
Bus & Motor
Unknown
Mass
Unknown
Launch date (UTC)
1999-05-10 (27 years ago)
Launch vehicle
Unknown
Launch site
Taiyaun Space Center, China (TSC)
Object type
Payload
Rocket body
Debris
Shape & HBR
Unknown shape, 0.1 m
Radar Cross Section
Small (<0.1 m²)

Expand to show TLE details & history
Last TLE update: 1 day ago

TLE from 1 day ago
0 FENGYUN 1C DEB
1 37444U 99025EHN 26207.07216222  .00002492  00000-0  45705-3 0  9997
2 37444  99.0781 309.7631 0239570  35.2131 326.4629 14.49922339684149
Epoch: 2026-07-26T01:43Z
TLE epoch observation values (Epoch: 2026-07-26T01:43:54.815Z)
Latitude
-0°
Longitude
-19.99064°
Altitude
588.241 km
Speed
7.641 km/s
True Right ascension
20h 39m 03s
True Declination
0° 00' 00"
Sunlit
Object was in full shadow at epoch
Visualization orbit readout
Latitude
Unknown
Longitude
Unknown
Altitude
Unknown
Speed
Unknown
Apparent Right ascension
Unknown
Apparent Declination
Unknown
Sunlit
N/A
Visualization observer readout
Local Sidereal Time
21:06:12
Azimuth
Unknown
Elevation
Unknown
Doppler factor
Unknown
Orbital elements
Apogee altitude
893.159 km
Perigee altitude
552.914 km
Semi-major axis
7,101.174 km
Eccentricity
0.02396
Inclination
99.0781°
RAAN
309.7631°
Arg. of periapsis
35.2131°
True anomaly
324.90761°
Mean anomaly
326.4629°
Eccentric anomaly
325.68917°
Mean motion
3.627 °/min
Orbital period
99.26 mins
BSTAR
0.00045705
Loading maneuver chart data...
Computing Atmospheric mass density...

Documentation

Showing up to 5 results
|